Regional Weather Roundup
Issued by NWS

Home | Current Version | Previous Version | Graphics & Text | Print | Product List | Glossary On
Versions: 1 2 3 4 5 6 7 8 9 10 11 12 13 14 15 16 17 18 19 20 21 22 23 24 25 26 27 28 29 30 31 32 33 34 35 36 37 38 39 40 41 42 43 44 45 46 47 48 49 50
290
ASUS43 KDMX 310108
RWRIA

WEATHER ROUNDUP FOR IOWA
NATIONAL WEATHER SERVICE DES MOINES IA
800 PM CDT MON MAY 30 2016

NOTE: "FAIR" INDICATES FEW OR NO CLOUDS BELOW 12,000 FEET WITH NO
SIGNIFICANT WEATHER AND/OR OBSTRUCTIONS TO VISIBILITY.

* - THESE STATIONS ARE NOT NWS STATIONS...THUS NOT UNDER NWS
QUALITY CONTROL.  THEY ALSO DO NOT REPORT WEATHER SUCH
AS PRECIPITATION OR FOG.

IAZ001>003-012>014-020>022-031>034-043>046-310200-
   NORTHWEST IOWA

CITY           SKY/WX    TMP DP  RH WIND       PRES   REMARKS
CARROLL *      PTCLDY    75  57  53 S14G22    29.89R
CHEROKEE *     CLOUDY    73  57  56 S16G28    29.85R
DENISON *      CLOUDY    70  59  68 S15G28    29.87R
LE MARS *      MOCLDY    79  61  53 S25G35    29.82R HX  80
ORANGE CITY *  CLEAR     82  57  42 S9        29.82R HX  82
SHELDON *      PTCLDY    81  59  47 S10       29.81R HX  81
SIOUX CITY     MOCLDY    76  60  57 SE18G31   29.83R
SPENCER        CLEAR     80  56  43 S5        29.83S HX  80
STORM LAKE *   CLEAR     73  57  56 SW21G29   29.87R
$$

IAZ055>058-069>071-079>083-090>094-310200-
   SOUTHWEST IOWA

CITY           SKY/WX    TMP DP  RH WIND       PRES   REMARKS
ATLANTIC *     CLOUDY    68  61  77 S16       29.92R
AUDUBON *        N/A     72  59  64 S10       29.93R
CLARINDA *       N/A     66  61  82 MISG      30.00R
COUNCIL BLFS * PTCLDY    70  61  73 SE24G37   29.91R
CRESTON *      CLOUDY    68  57  68 W16G23    29.98R
HARLAN  *      PTCLDY    70  59  68 S20G30    29.93R
LAMONI         CLOUDY    72  62  71 S10       29.96R
RED OAK *      MOCLDY    68  59  73 S15G23    29.96R
SHENANDOAH *   PTCLDY    66  63  88 SE12      29.94F
$$

IAZ047>049-059>061-072>074-084-310200-
   CENTRAL IOWA

CITY           SKY/WX    TMP DP  RH WIND       PRES   REMARKS
AMES           CLOUDY    67  63  87 N8        29.90S
ANKENY *       MOCLDY    81  63  54 SW18G30   29.90R HX  82
BOONE *        DRIZZLE   66  61  82 E9        29.89F
CHARITON *     MOCLDY    77  64  65 S21G35    29.94R
DES MOINES     CLOUDY    79  60  52 SW17G31   29.90R HX  80
GRINNELL*      CLOUDY    79  55  44 S20       29.92R
KNOXVILLE *    CLEAR     77  61  57 S8G14     29.92R
MARSHALLTOWN   CLOUDY    75  59  57 W5        29.90R
NEWTON *       PTCLDY    81  61  50 SW18G26   29.91R HX  81
PELLA *        PTCLDY    79  61  53 SW8       29.93R HX  80
PERRY *        LGT RAIN  70  63  78 S17       29.90R
$$

IAZ004>006-015-016-023>025-035-036-310200-
   NORTH CENTRAL IOWA

CITY           SKY/WX    TMP DP  RH WIND       PRES   REMARKS
ALGONA *       MOCLDY    70  63  78 SE15G22   29.90R
CLARION *      PTCLDY    72  59  64 S18G28    29.90R
ESTHERVILLE    CLEAR     76  62  62 SE9       29.84R
FORT DODGE *   CLOUDY    66  57  72 SE12G17   29.89F
MASON CITY     LGT RAIN  66  62  87 SE7       29.96R
FOREST CITY *  MOCLDY    68  61  77 S12       29.95R
WEBSTER CITY * LGT RAIN  66  61  82 SW18G26   29.92R
IOWA FALLS *   LGT RAIN  72  57  60 S13G18    29.95R
$$

IAZ007>011-017>019-026>030-037>042-050>054-066-310200-
   NORTHEAST IOWA

CITY           SKY/WX    TMP DP  RH WIND       PRES   REMARKS
CEDAR RAPIDS   PTCLDY    80  64  58 S22G29    29.92R HX  82
CHARLES CITY * LGT RAIN  72  61  68 S15G26    29.99R
CLINTON *      CLEAR     80  60  50 SW10      29.95S HX  81
DECORAH *      CLEAR     75  55  50 SE6       29.94R
DUBUQUE        CLEAR     73  55  53 E6        29.96R
MONTICELLO *   CLEAR     77  63  61 SE5       29.94R
OELWEIN *      MOCLDY    70  59  68 SW47G58   29.94R
WATERLOO       CLOUDY    73  60  63 NW9G26    29.92R
$$

IAZ064-065-067-068-078-310200-
   EAST CENTRAL IOWA

CITY           SKY/WX    TMP DP  RH WIND       PRES   REMARKS
DAVENPORT      PTCLDY    81  61  50 S3        29.95S HX  82
IOWA CITY      CLOUDY    81  63  54 S14       29.93S HX  82
MT. PLEASANT * CLOUDY    82  66  57 S7        29.95S HX  85
MUSCATINE *    CLEAR     81  64  57 S7        29.94S HX  82
QUAD CITIES    PTCLDY    83  61  47 S3        29.93F HX  83
$$

IAZ062-063-075>077-085>089-095>099-310200-
   SOUTHEAST IOWA

CITY           SKY/WX    TMP DP  RH WIND       PRES   REMARKS
BURLINGTON     CLOUDY    77  66  68 S7        29.95S
FAIRFIELD *      N/A    N/A N/A N/A MISG        N/A
FORT MADISON * CLEAR     79  66  65 S5        29.96S HX  81
KEOKUK *       CLEAR     79  66  65 S5        29.94F HX  81
OSKALOOSA *      N/A     77  63  61 S9        29.93R
OTTUMWA        PTCLDY    78  64  61 S8        29.93S HX  80
WASHINGTON *   CLEAR     77 -35   1 S7        29.95S
$$

ABBREVIATIONS USED IN REMARKS
   TC - TEMPERATURES IN CELSIUS
  WCI - WIND CHILL INDEX
   HX - HEAT INDEX
  VSB - VISIBILITY
$$





USA.gov is the U.S. government's official web portal to all federal, state and local government web resources and services.